NEE-02 KRYSAOR

Last updated on Wed Sep 23 2026 00:04:22 GMT+0000 (Coordinated Universal Time)

1 39441U 13066AB 26265.25590611 .00001179 00000+0 13295-3 0 9997 2 39441 97.8946 203.8238 0067059 110.7430 250.0989 14.86923786690625
UTC large
Height (km)
Speed (km/s)
/
Latitude / Longitude
Inclination (degrees)
Orbital Period (minutes)
Azimuth
Elevation
Range (km)
Doppler Factor

Next 0 passes for location: London (51.5072 / 0.1276)

No passes found over London.
NEE-02 KRYSAOR